| time (UTC) | temp F | wind direction | speed knots | gust knots | rain 1hr in | rain 24hr in | rain mn in | humidity % | barometer mb |
| 20260506051005 | 49 | 330 | 5.2 | 8.7 | 0.00 | 0.01 | 0.01 | 96 | 1009.1 |
| 20260506050506 | 49 | 297 | 5.2 | 12.2 | 0.00 | 0.01 | 0.01 | 96 | 1009.2 |
| 20260506050109 | 49 | 335 | 6.1 | 12.2 | 0.00 | 0.01 | 0.01 | 96 | 1009.2 |
| 20260506044514 | 49 | 35 | 7.0 | 11.3 | 0.01 | 0.01 | 0.01 | 96 | 1009.2 |
| 20260506044005 | 49 | 321 | 5.2 | 11.3 | 0.01 | 0.01 | 0.01 | 96 | 1009.2 |
| 20260506043534 | 49 | 318 | 4.3 | 8.7 | 0.01 | 0.01 | 0.01 | 96 | 1009.2 |
| 20260506042534 | 49 | 307 | 4.3 | 10.4 | 0.01 | 0.01 | 0.01 | 96 | 1009.2 |
| 20260506041504 | 49 | 330 | 4.3 | 7.8 | 0.01 | 0.01 | 0.01 | 96 | 1009.2 |
| 20260506041004 | 49 | 330 | 4.3 | 9.6 | 0.01 | 0.01 | 0.01 | 95 | 1009.2 |
| 20260506040503 | 48 | 321 | 5.2 | 9.6 | 0.01 | 0.01 | 0.01 | 95 | 1009.3 |
| 20260506040012 | 48 | 344 | 5.2 | 10.4 | 0.01 | 0.01 | 0.01 | 95 | 1009.3 |
| 20260506035505 | 48 | 339 | 4.3 | 10.4 | 0.01 | 0.01 | 0.01 | 95 | 1009.3 |
| 20260506035005 | 48 | 16 | 5.2 | 9.6 | 0.00 | 0.00 | 0.00 | 95 | 1009.4 |
| 20260506034507 | 48 | 325 | 6.1 | 9.6 | 0.00 | 0.00 | 0.00 | 94 | 1009.4 |
| 20260506034006 | 49 | 349 | 7.0 | 11.3 | 0.00 | 0.00 | 0.00 | 94 | 1009.4 |
| 20260506033502 | 49 | 12 | 6.1 | 11.3 | 0.00 | 0.00 | 0.00 | 94 | 1009.4 |
| 20260506033005 | 49 | 39 | 5.2 | 11.3 | 0.00 | 0.00 | 0.00 | 94 | 1009.4 |
| 20260506032505 | 49 | 319 | 6.1 | 11.3 | 0.00 | 0.00 | 0.00 | 94 | 1009.5 |
| 20260506032005 | 49 | 353 | 6.1 | 11.3 | 0.00 | 0.00 | 0.00 | 94 | 1009.5 |
| 20260506031504 | 49 | 356 | 5.2 | 9.6 | 0.00 | 0.00 | 0.00 | 93 | 1009.4 |
| 20260506031004 | 49 | 10 | 6.1 | 9.6 | 0.00 | 0.00 | 0.00 | 93 | 1009.5 |
| 20260506030503 | 49 | 339 | 5.2 | 9.6 | 0.00 | 0.00 | 0.00 | 92 | 1009.5 |
| 20260506030004 | 49 | 330 | 5.2 | 12.2 | 0.00 | 0.00 | 0.00 | 92 | 1009.5 |
| 20260506025503 | 49 | 318 | 6.1 | 12.2 | 0.00 | 0.00 | 0.00 | 91 | 1009.6 |
| 20260506025004 | 49 | 347 | 7.0 | 13.0 | 0.00 | 0.00 | 0.00 | 91 | 1009.7 |
| 20260506024503 | 50 | 353 | 6.1 | 13.0 | 0.00 | 0.00 | 0.00 | 90 | 1009.6 |
| 20260506024004 | 49 | 6 | 4.3 | 11.3 | 0.00 | 0.00 | 0.00 | 90 | 1009.6 |
| 20260506023531 | 49 | 316 | 5.2 | 8.7 | 0.00 | 0.00 | 0.00 | 90 | 1009.5 |
| 20260506022504 | 49 | 318 | 5.2 | 9.6 | 0.00 | 0.00 | 0.00 | 90 | 1009.6 |
| 20260506022006 | 49 | 314 | 6.1 | 9.6 | 0.00 | 0.00 | 0.00 | 90 | 1009.6 |
| 20260506021505 | 49 | 325 | 5.2 | 9.6 | 0.00 | 0.00 | 0.00 | 90 | 1009.6 |
| 20260506021005 | 49 | 330 | 5.2 | 9.6 | 0.00 | 0.00 | 0.00 | 89 | 1009.5 |
| 20260506020502 | 49 | 330 | 5.2 | 10.4 | 0.00 | 0.00 | 0.00 | 89 | 1009.6 |
| 20260506020119 | 49 | 353 | 5.2 | 10.4 | 0.00 | 0.00 | 0.00 | 89 | 1009.6 |
| 20260506014505 | 49 | 330 | 4.3 | 7.8 | 0.00 | 0.00 | 0.00 | 89 | 1009.5 |
| 20260506014025 | 49 | 308 | 4.3 | 7.8 | 0.00 | 0.00 | 0.00 | 89 | 1009.6 |
| 20260506013005 | 49 | 349 | 4.3 | 8.7 | 0.00 | 0.00 | 0.00 | 89 | 1009.7 |
| 20260506012504 | 49 | 317 | 5.2 | 8.7 | 0.00 | 0.00 | 0.00 | 88 | 1009.7 |
| 20260506012003 | 49 | 325 | 5.2 | 8.7 | 0.00 | 0.00 | 0.00 | 88 | 1009.7 |
| 20260506011504 | 49 | 339 | 5.2 | 9.6 | 0.00 | 0.00 | 0.00 | 88 | 1009.7 |
| 20260506011004 | 50 | 306 | 5.2 | 9.6 | 0.00 | 0.00 | 0.00 | 88 | 1009.8 |
| 20260506010502 | 50 | 353 | 5.2 | 10.4 | 0.00 | 0.00 | 0.00 | 89 | 1009.9 |
| 20260506010106 | 50 | 339 | 5.2 | 10.4 | 0.00 | 0.00 | 0.00 | 89 | 1009.9 |
| 20260506004512 | 50 | 4 | 5.2 | 10.4 | 0.00 | 0.00 | 0.00 | 88 | 1010.0 |
| 20260506004045 | 50 | 330 | 4.3 | 10.4 | 0.00 | 0.00 | 0.00 | 88 | 1010.1 |
| 20260506003002 | 50 | 325 | 6.1 | 13.9 | 0.00 | 0.00 | 0.00 | 87 | 1010.2 |
| 20260506002504 | 50 | 339 | 7.0 | 13.9 | 0.00 | 0.00 | 0.00 | 87 | 1010.2 |
| 20260506002002 | 50 | 345 | 6.1 | 12.2 | 0.00 | 0.00 | 0.00 | 86 | 1010.2 |
| 20260506001502 | 50 | 339 | 6.1 | 13.0 | 0.00 | 0.00 | 0.00 | 86 | 1010.3 |
| 20260506001005 | 49 | 10 | 6.1 | 13.0 | 0.00 | 0.00 | 0.00 | 86 | 1010.3 |
| 20260506000504 | 49 | 1 | 5.2 | 13.0 | 0.00 | 0.00 | 0.00 | 86 | 1010.3 |
| 20260506000042 | 49 | 343 | 5.2 | 13.0 | 0.00 | 0.00 | 0.00 | 85 | 1010.3 |
| 20260505235035 | 49 | 319 | 5.2 | 9.6 | 0.00 | 0.00 | 0.00 | 85 | 1010.4 |
| 20260505233959 | 49 | 330 | 5.2 | 9.6 | 0.00 | 0.00 | 0.00 | 85 | 1010.5 |
| 20260505233458 | 49 | 343 | 4.3 | 9.6 | 0.00 | 0.00 | 0.00 | 85 | 1010.5 |
| 20260505232959 | 49 | 357 | 5.2 | 9.6 | 0.00 | 0.00 | 0.00 | 85 | 1010.5 |
| 20260505232501 | 49 | 342 | 4.3 | 9.6 | 0.00 | 0.00 | 0.00 | 84 | 1010.6 |
| 20260505232000 | 49 | 330 | 4.3 | 7.8 | 0.00 | 0.00 | 0.00 | 84 | 1010.6 |
| 20260505231459 | 49 | 306 | 4.3 | 8.7 | 0.00 | 0.00 | 0.00 | 84 | 1010.7 |
| 20260505231000 | 49 | 320 | 4.3 | 9.6 | 0.00 | 0.00 | 0.00 | 84 | 1010.7 |
| 20260505230513 | 49 | 4 | 5.2 | 9.6 | 0.00 | 0.00 | 0.00 | 84 | 1010.7 |
| 20260505230036 | 49 | 355 | 5.2 | 8.7 | 0.00 | 0.00 | 0.00 | 84 | 1010.8 |
| 20260505224957 | 49 | 320 | 3.5 | 8.7 | 0.00 | 0.00 | 0.00 | 85 | 1010.9 |
| 20260505224456 | 49 | 3 | 3.5 | 9.6 | 0.00 | 0.00 | 0.00 | 85 | 1010.8 |
| 20260505224043 | 49 | 12 | 4.3 | 9.6 | 0.00 | 0.00 | 0.00 | 85 | 1010.8 |
| 20260505222959 | 49 | 335 | 4.3 | 8.7 | 0.00 | 0.00 | 0.00 | 85 | 1010.9 |
| 20260505222459 | 49 | 19 | 4.3 | 10.4 | 0.00 | 0.00 | 0.00 | 85 | 1010.9 |
| 20260505222128 | 49 | 354 | 3.5 | 10.4 | 0.00 | 0.00 | 0.00 | 85 | 1011.0 |
| 20260505220454 | 49 | 358 | 5.2 | 10.4 | 0.00 | 0.00 | 0.00 | 85 | 1011.0 |
| 20260505215955 | 49 | 342 | 4.3 | 8.7 | 0.00 | 0.00 | 0.00 | 85 | 1011.1 |
| 20260505215453 | 49 | 318 | 5.2 | 10.4 | 0.00 | 0.00 | 0.00 | 85 | 1011.0 |
| 20260505214953 | 49 | 321 | 5.2 | 10.4 | 0.00 | 0.00 | 0.00 | 85 | 1011.1 |
| 20260505214454 | 49 | 339 | 5.2 | 9.6 | 0.00 | 0.00 | 0.00 | 85 | 1011.1 |
| 20260505214004 | 49 | 330 | 4.3 | 10.4 | 0.00 | 0.00 | 0.00 | 85 | 1011.1 |
| 20260505213449 | 50 | 339 | 3.5 | 10.4 | 0.00 | 0.00 | 0.00 | 85 | 1011.1 |
| 20260505213020 | 50 | 325 | 4.3 | 8.7 | 0.00 | 0.00 | 0.00 | 84 | 1011.1 |
| 20260505211948 | 50 | 345 | 6.1 | 12.2 | 0.00 | 0.00 | 0.00 | 83 | 1011.1 |
| 20260505211449 | 50 | 335 | 6.1 | 12.2 | 0.00 | 0.00 | 0.00 | 83 | 1011.1 |
| 20260505210959 | 50 | 325 | 5.2 | 10.4 | 0.00 | 0.00 | 0.00 | 82 | 1011.1 |
| 20260505210450 | 50 | 339 | 5.2 | 11.3 | 0.00 | 0.00 | 0.00 | 83 | 1011.2 |
| 20260505205950 | 51 | 325 | 5.2 | 11.3 | 0.00 | 0.00 | 0.00 | 83 | 1011.2 |
| 20260505205450 | 51 | 330 | 5.2 | 11.3 | 0.00 | 0.00 | 0.00 | 83 | 1011.3 |
| 20260505204951 | 51 | 4 | 6.1 | 12.2 | 0.00 | 0.00 | 0.00 | 82 | 1011.2 |
| 20260505204451 | 51 | 347 | 6.1 | 12.2 | 0.00 | 0.00 | 0.00 | 82 | 1011.3 |
| 20260505203956 | 51 | 6 | 7.0 | 13.0 | 0.00 | 0.00 | 0.00 | 82 | 1011.3 |
| 20260505203451 | 51 | 313 | 7.8 | 13.0 | 0.00 | 0.00 | 0.00 | 82 | 1011.4 |
| 20260505203028 | 51 | 325 | 7.8 | 13.0 | 0.00 | 0.00 | 0.00 | 81 | 1011.3 |
| 20260505201946 | 51 | 29 | 7.8 | 15.6 | 0.00 | 0.00 | 0.00 | 81 | 1011.4 |
| 20260505201447 | 51 | 313 | 7.0 | 15.6 | 0.00 | 0.00 | 0.00 | 81 | 1011.3 |
| 20260505201031 | 51 | 352 | 7.0 | 13.9 | 0.00 | 0.00 | 0.00 | 81 | 1011.3 |
| 20260505195946 | 51 | 13 | 7.8 | 13.9 | 0.00 | 0.00 | 0.00 | 81 | 1011.2 |
| 20260505195445 | 52 | 330 | 6.1 | 13.9 | 0.00 | 0.00 | 0.00 | 81 | 1011.2 |
| 20260505195018 | 52 | 335 | 6.1 | 13.0 | 0.00 | 0.00 | 0.00 | 81 | 1011.1 |
| 20260505194041 | 52 | 6 | 7.8 | 14.8 | 0.00 | 0.00 | 0.00 | 81 | 1011.1 |
| 20260505192943 | 52 | 7 | 8.7 | 17.4 | 0.00 | 0.00 | 0.00 | 81 | 1011.0 |
| 20260505192443 | 52 | 335 | 8.7 | 13.9 | 0.00 | 0.00 | 0.00 | 80 | 1010.8 |
| 20260505191942 | 52 | 330 | 8.7 | 15.6 | 0.00 | 0.00 | 0.00 | 80 | 1010.8 |
| 20260505191444 | 53 | 6 | 7.8 | 15.6 | 0.00 | 0.00 | 0.00 | 80 | 1010.8 |
| 20260505190940 | 53 | 12 | 7.0 | 13.0 | 0.00 | 0.00 | 0.00 | 81 | 1010.7 |
| 20260505190514 | 53 | 6 | 6.1 | 13.9 | 0.00 | 0.00 | 0.00 | 81 | 1010.7 |
| 20260505185439 | 53 | 349 | 7.0 | 13.0 | 0.00 | 0.00 | 0.00 | 80 | 1010.7 |
| 20260505185009 | 53 | 357 | 7.8 | 14.8 | 0.00 | 0.00 | 0.00 | 80 | 1010.6 |
| 20260505183942 | 53 | 347 | 7.8 | 14.8 | 0.00 | 0.00 | 0.00 | 79 | 1010.5 |
| 20260505183440 | 54 | 0 | 7.8 | 14.8 | 0.00 | 0.00 | 0.00 | 79 | 1010.5 |
| 20260505182937 | 54 | 357 | 7.8 | 14.8 | 0.00 | 0.00 | 0.00 | 79 | 1010.6 |
| 20260505182437 | 54 | 349 | 7.0 | 14.8 | 0.00 | 0.00 | 0.00 | 79 | 1010.5 |
| 20260505181938 | 54 | 6 | 7.8 | 15.6 | 0.00 | 0.00 | 0.00 | 78 | 1010.4 |
| 20260505181436 | 54 | 10 | 7.8 | 16.5 | 0.00 | 0.00 | 0.00 | 78 | 1010.4 |
| 20260505180936 | 54 | 350 | 7.8 | 16.5 | 0.00 | 0.00 | 0.00 | 77 | 1010.3 |
| 20260505180450 | 54 | 15 | 8.7 | 20.0 | 0.00 | 0.00 | 0.00 | 77 | 1010.3 |
| 20260505175937 | 55 | 21 | 9.6 | 20.0 | 0.00 | 0.00 | 0.00 | 76 | 1010.3 |
| 20260505175537 | 55 | 335 | 7.8 | 16.5 | 0.00 | 0.00 | 0.00 | 77 | 1010.3 |
| 20260505173938 | 55 | 358 | 8.7 | 17.4 | 0.00 | 0.00 | 0.00 | 76 | 1010.3 |
| 20260505173544 | 55 | 330 | 8.7 | 17.4 | 0.00 | 0.00 | 0.00 | 77 | 1010.3 |
| 20260505171934 | 56 | 325 | 8.7 | 17.4 | 0.00 | 0.00 | 0.00 | 77 | 1010.4 |
| 20260505171435 | 56 | 316 | 8.7 | 17.4 | 0.00 | 0.00 | 0.00 | 77 | 1010.4 |
| 20260505170933 | 56 | 301 | 9.6 | 16.5 | 0.00 | 0.00 | 0.00 | 77 | 1010.4 |
| 20260505170448 | 56 | 341 | 9.6 | 17.4 | 0.00 | 0.00 | 0.00 | 77 | 1010.4 |
| 20260505165937 | 56 | 339 | 9.6 | 17.4 | 0.00 | 0.00 | 0.00 | 76 | 1010.6 |
| 20260505165439 | 56 | 9 | 7.8 | 13.9 | 0.00 | 0.00 | 0.00 | 77 | 1010.5 |
| 20260505164935 | 56 | 354 | 7.8 | 15.6 | 0.00 | 0.00 | 0.00 | 77 | 1010.6 |
| 20260505164436 | 56 | 11 | 8.7 | 16.5 | 0.00 | 0.00 | 0.00 | 77 | 1010.6 |
| 20260505163937 | 56 | 354 | 8.7 | 18.2 | 0.00 | 0.00 | 0.00 | 78 | 1010.5 |
| 20260505163436 | 56 | 309 | 8.7 | 18.2 | 0.00 | 0.00 | 0.00 | 77 | 1010.6 |
| 20260505162934 | 57 | 3 | 7.8 | 15.6 | 0.00 | 0.00 | 0.00 | 77 | 1010.5 |
| 20260505162507 | 57 | 335 | 7.8 | 15.6 | 0.00 | 0.00 | 0.00 | 77 | 1010.6 |
| 20260505161436 | 57 | 4 | 7.0 | 12.2 | 0.00 | 0.00 | 0.00 | 77 | 1010.6 |
| 20260505161100 | 57 | 11 | 6.1 | 12.2 | 0.00 | 0.00 | 0.00 | 79 | 1010.6 |
| 20260505153012 | 57 | 302 | 7.8 | 15.6 | 0.00 | 0.01 | 0.00 | 79 | 1010.7 |
| 20260505151928 | 57 | 8 | 7.0 | 12.2 | 0.00 | 0.01 | 0.00 | 79 | 1010.8 |
| 20260505151458 | 57 | 2 | 7.0 | 13.9 | 0.00 | 0.02 | 0.00 | 79 | 1010.8 |
| 20260505150426 | 57 | 357 | 7.8 | 14.8 | 0.00 | 0.03 | 0.00 | 78 | 1010.8 |
| 20260505140422 | 58 | 300 | 6.1 | 13.0 | 0.00 | 0.05 | 0.00 | 79 | 1011.0 |
| 20260505124908 | 55 | 32 | 6.1 | 11.3 | 0.00 | 0.18 | 0.00 | 83 | 1011.8 |
| 20260505124409 | 56 | 0 | 5.2 | 8.7 | 0.00 | 0.18 | 0.00 | 83 | 1011.9 |
| 20260505123943 | 56 | 64 | 6.1 | 12.2 | 0.00 | 0.18 | 0.00 | 85 | 1011.8 |
| 20260505122908 | 56 | 22 | 6.1 | 9.6 | 0.00 | 0.18 | 0.00 | 84 | 1011.7 |
| 20260505122404 | 55 | 76 | 6.1 | 9.6 | 0.00 | 0.18 | 0.00 | 85 | 1011.8 |
| 20260505121906 | 55 | 14 | 6.1 | 10.4 | 0.00 | 0.18 | 0.00 | 86 | 1011.8 |
| 20260505121408 | 54 | 8 | 5.2 | 10.4 | 0.00 | 0.18 | 0.00 | 87 | 1011.9 |
| 20260505120909 | 54 | 19 | 5.2 | 9.6 | 0.00 | 0.18 | 0.00 | 87 | 1011.9 |
| 20260505120404 | 54 | 55 | 6.1 | 10.4 | 0.00 | 0.18 | 0.00 | 87 | 1011.8 |
| 20260505115904 | 54 | 58 | 7.0 | 12.2 | 0.00 | 0.18 | 0.00 | 88 | 1011.8 |
| 20260505115438 | 54 | 15 | 7.0 | 12.2 | 0.00 | 0.18 | 0.00 | 87 | 1011.8 |
| 20260505114403 | 54 | 23 | 6.1 | 12.2 | 0.00 | 0.18 | 0.00 | 88 | 1011.9 |
| 20260505113903 | 53 | 24 | 7.0 | 12.2 | 0.00 | 0.18 | 0.00 | 87 | 1012.1 |
| 20260505113502 | 53 | 317 | 5.2 | 12.2 | 0.00 | 0.18 | 0.00 | 88 | 1012.0 |
| 20260505113133 | 53 | 320 | 5.2 | 13.9 | 0.00 | 0.18 | 0.00 | 88 | 1012.1 |
| 20260505110410 | 53 | 319 | 6.1 | 12.2 | 0.00 | 0.18 | 0.00 | 89 | 1012.0 |
| 20260505101903 | 52 | 355 | 7.0 | 13.0 | 0.00 | 0.18 | 0.00 | 90 | 1012.4 |
| 20260505101407 | 52 | 10 | 6.1 | 12.2 | 0.00 | 0.18 | 0.00 | 90 | 1012.5 |
| 20260505100928 | 52 | 8 | 6.1 | 13.0 | 0.00 | 0.18 | 0.00 | 90 | 1012.5 |
| 20260505095905 | 52 | 7 | 6.1 | 11.3 | 0.00 | 0.18 | 0.00 | 90 | 1012.5 |
| 20260505095359 | 52 | 17 | 7.8 | 13.0 | 0.00 | 0.18 | 0.00 | 90 | 1012.6 |
| 20260505094901 | 52 | 30 | 7.8 | 13.0 | 0.00 | 0.18 | 0.00 | 90 | 1012.6 |
| 20260505094402 | 52 | 20 | 7.0 | 13.0 | 0.00 | 0.18 | 0.00 | 90 | 1012.6 |
| 20260505093901 | 52 | 340 | 7.0 | 14.8 | 0.00 | 0.18 | 0.00 | 90 | 1012.6 |
| 20260505093402 | 52 | 23 | 7.8 | 14.8 | 0.00 | 0.18 | 0.00 | 90 | 1012.6 |
| 20260505092948 | 52 | 16 | 6.1 | 13.0 | 0.00 | 0.18 | 0.00 | 90 | 1012.7 |
| 20260505091903 | 52 | 18 | 7.0 | 13.9 | 0.00 | 0.18 | 0.00 | 91 | 1012.8 |
| 20260505091430 | 51 | 5 | 7.8 | 13.9 | 0.00 | 0.18 | 0.00 | 91 | 1012.8 |
| 20260505090400 | 51 | 19 | 6.1 | 13.9 | 0.00 | 0.18 | 0.00 | 91 | 1012.9 |
| 20260505085858 | 51 | 13 | 6.1 | 11.3 | 0.00 | 0.18 | 0.00 | 92 | 1012.9 |
| 20260505085400 | 51 | 16 | 7.0 | 12.2 | 0.00 | 0.18 | 0.00 | 92 | 1012.9 |
| 20260505084858 | 51 | 49 | 7.0 | 13.0 | 0.00 | 0.18 | 0.00 | 92 | 1012.9 |
| 20260505084400 | 51 | 8 | 6.1 | 13.0 | 0.00 | 0.18 | 0.00 | 92 | 1012.8 |
| 20260505083858 | 51 | 6 | 5.2 | 11.3 | 0.00 | 0.18 | 0.00 | 93 | 1012.8 |
| 20260505083358 | 51 | 53 | 6.1 | 11.3 | 0.00 | 0.18 | 0.00 | 93 | 1012.7 |
| 20260505082900 | 51 | 4 | 7.0 | 13.0 | 0.00 | 0.18 | 0.00 | 94 | 1012.7 |
| 20260505082357 | 51 | 330 | 6.1 | 13.0 | 0.00 | 0.18 | 0.00 | 94 | 1012.7 |
| 20260505081933 | 51 | 10 | 7.0 | 12.2 | 0.00 | 0.18 | 0.00 | 94 | 1012.6 |
| 20260505080901 | 50 | 351 | 7.0 | 13.0 | 0.00 | 0.18 | 0.00 | 94 | 1012.6 |
| 20260505080356 | 50 | 20 | 6.1 | 11.3 | 0.00 | 0.18 | 0.00 | 94 | 1012.6 |
| 20260505075858 | 50 | 40 | 6.1 | 11.3 | 0.00 | 0.18 | 0.00 | 95 | 1012.6 |
| 20260505075355 | 50 | 345 | 7.0 | 12.2 | 0.00 | 0.18 | 0.00 | 95 | 1012.7 |
| 20260505074852 | 50 | 8 | 7.0 | 12.2 | 0.00 | 0.18 | 0.00 | 95 | 1012.6 |
| 20260505074429 | 50 | 345 | 7.8 | 13.0 | 0.00 | 0.18 | 0.00 | 95 | 1012.6 |
| 20260505073352 | 50 | 6 | 7.0 | 13.9 | 0.00 | 0.18 | 0.00 | 95 | 1012.7 |
| 20260505072854 | 50 | 6 | 7.0 | 13.9 | 0.00 | 0.18 | 0.00 | 95 | 1012.7 |
| 20260505072422 | 50 | 335 | 8.7 | 13.9 | 0.00 | 0.18 | 0.00 | 95 | 1012.7 |
| 20260505071354 | 50 | 9 | 7.0 | 13.9 | 0.00 | 0.18 | 0.00 | 95 | 1012.7 |
| 20260505070959 | 50 | 16 | 7.0 | 14.8 | 0.00 | 0.18 | 0.00 | 95 | 1012.6 |
| 20260505065350 | 50 | 4 | 7.0 | 13.9 | 0.00 | 0.18 | 0.00 | 96 | 1012.8 |
| 20260505064850 | 50 | 352 | 7.0 | 14.8 | 0.00 | 0.18 | 0.00 | 96 | 1012.8 |
| 20260505064350 | 50 | 9 | 7.0 | 14.8 | 0.00 | 0.18 | 0.00 | 96 | 1012.9 |
| 20260505063849 | 50 | 335 | 6.1 | 13.0 | 0.00 | 0.18 | 0.00 | 96 | 1012.9 |
| 20260505063352 | 50 | 2 | 5.2 | 13.0 | 0.00 | 0.18 | 0.00 | 96 | 1012.8 |
| 20260505062853 | 50 | 12 | 7.0 | 12.2 | 0.00 | 0.18 | 0.00 | 96 | 1012.9 |
| 20260505062348 | 50 | 341 | 7.8 | 13.0 | 0.00 | 0.18 | 0.00 | 96 | 1012.9 |
| 20260505061850 | 50 | 356 | 7.8 | 13.0 | 0.00 | 0.18 | 0.00 | 95 | 1012.9 |
| 20260505061349 | 50 | 5 | 7.0 | 11.3 | 0.00 | 0.18 | 0.00 | 95 | 1012.9 |
| 20260505060849 | 50 | 330 | 7.0 | 13.9 | 0.00 | 0.18 | 0.00 | 95 | 1013.0 |
| 20260505060507 | 50 | 1 | 7.0 | 13.9 | 0.00 | 0.18 | 0.00 | 95 | 1013.1 |
| 20260505054851 | 50 | 341 | 7.8 | 13.9 | 0.00 | 0.18 | 0.00 | 95 | 1013.2 |
| 20260505054347 | 50 | 354 | 7.8 | 13.0 | 0.00 | 0.18 | 0.00 | 95 | 1013.2 |
| 20260505053915 | 50 | 354 | 7.0 | 13.0 | 0.00 | 0.18 | 0.00 | 95 | 1013.1 |